Weather History for KGPI - January, 2012

Change the Weather History Date:

Sunday, January 1, 2012

  Actual Average Record
Temperature  
Mean Temperature 27 °F 22 °F  
Max Temperature 34 °F 29 °F 53 °F (1939)
Min Temperature 19 °F 15 °F -37 °F (1979)
Degree Days  
Heating Degree Days 38 43  
Month to date heating degree days 38 43  
Since 1 July heating degree days 3265 3557  
Cooling Degree Days 0 0  
Month to date cooling degree days 0 0  
Year to date cooling degree days 0 0  
Moisture  
Dew Point 19 °F    
Average Humidity 70    
Maximum Humidity 88    
Minimum Humidity 51    
Precipitation  
Precipitation 0.00 in 0.05 in 0.33 in (1968)
Month to date precipitation 0.00 0.05  
Year to date precipitation 0.00 0.05  
Snow  
Snow 0.00 in - - ()
Month to date snowfall 0.0  
Year to date snowfall 0.0  
Since 1 July snowfall 6.3  
Snow Depth 0.00 in    
Sea Level Pressure  
Sea Level Pressure 30.63 in    
Wind  
Wind Speed 1 mph (NW)    
Max Wind Speed 13 mph    
Max Gust Speed 15 mph    
Visibility 10 miles    
Events      
T = Trace of Precipitation, MM = Missing Value Source: NWS Daily Summary

Daily Weather History Graph

Daily Weather History Graph

Search for Another Location

Airport or City:

Trip Planner

Search our weather history database for the weather conditions in past years. The results will help you decide how hot, cold, wet, or windy it might be!

Date:

Astronomy

Jan. 01, 2012 Rise Set
Actual Time 8:28 AM MST 4:53 PM MST
Civil Twilight 7:51 AM MST 5:29 PM MST
Nautical Twilight 7:11 AM MST 6:09 PM MST
Astronomical Twilight 6:34 AM MST 6:47 PM MST
Moon 12:00 PM MST (1/1) 1:08 AM MST (1/1)
Length of Visible Light 9h 37m
Length of Day
8h 24m
First Quarter, 55% of the Moon is Illuminated
Jan 1
First Quarter
Jan 9
Full
Jan 16
Last Quarter
Jan 23
New
Jan 30
First Quarter

Hourly Weather History & Observations

Time (MST) Temp. Windchill Dew Point Humidity Pressure Visibility Wind Dir Wind Speed Gust Speed Precip Events Conditions
12:55 AM 19.0 °F 13.9 °F 16.0 °F 88% 30.58 in 10.0 mi WNW 3.5 mph - N/A   Clear
1:55 AM 19.0 °F - 16.0 °F 88% 30.57 in 10.0 mi Calm Calm - N/A   Clear
2:55 AM 19.9 °F 14.9 °F 16.0 °F 85% 30.57 in 10.0 mi NNW 3.5 mph - N/A   Clear
3:55 AM 21.0 °F - 17.1 °F 85% 30.58 in 10.0 mi Calm Calm - N/A   Clear
4:55 AM 21.9 °F - 18.0 °F 85% 30.61 in 10.0 mi Calm Calm - N/A   Clear
5:55 AM 21.9 °F - 18.0 °F 85% 30.62 in 10.0 mi Calm Calm - N/A   Clear
6:55 AM 21.0 °F 16.2 °F 18.0 °F 88% 30.63 in 10.0 mi WNW 3.5 mph - N/A   Clear
7:55 AM 23.0 °F - 19.0 °F 85% 30.64 in 10.0 mi Calm Calm - N/A   Clear
8:55 AM 24.1 °F - 19.0 °F 81% 30.67 in 10.0 mi Calm Calm - N/A   Mostly Cloudy
9:55 AM 27.0 °F 23.0 °F 19.9 °F 75% 30.69 in 10.0 mi NNE 3.5 mph - N/A   Partly Cloudy
10:55 AM 27.0 °F - 19.0 °F 72% 30.70 in 10.0 mi Calm Calm - N/A   Mostly Cloudy
11:55 AM 28.9 °F 25.2 °F 19.9 °F 69% 30.70 in 10.0 mi North 3.5 mph - N/A   Mostly Cloudy
12:55 PM 30.9 °F - 19.9 °F 64% 30.69 in 10.0 mi Calm Calm - N/A   Clear
1:55 PM 33.1 °F 30.0 °F 18.0 °F 54% 30.67 in 10.0 mi North 3.5 mph - N/A   Clear
2:55 PM 30.9 °F - 18.0 °F 59% 30.67 in 10.0 mi Calm Calm - N/A   Clear
3:55 PM 30.9 °F 25.2 °F 19.0 °F 61% 30.68 in 10.0 mi West 5.8 mph - N/A   Scattered Clouds
4:55 PM 30.0 °F - 19.0 °F 64% 30.69 in 10.0 mi Calm Calm - N/A   Scattered Clouds
5:55 PM 28.0 °F - 19.9 °F 72% 30.68 in 10.0 mi Calm Calm - N/A   Scattered Clouds
6:55 PM 26.1 °F - 19.9 °F 78% 30.68 in 10.0 mi Calm Calm - N/A   Clear
7:55 PM 26.1 °F - 21.0 °F 81% 30.66 in 10.0 mi Calm Calm - N/A   Clear
8:55 PM 24.1 °F 18.2 °F 19.0 °F 81% 30.65 in 10.0 mi West 4.6 mph - N/A   Clear
9:55 PM 24.8 °F - 19.4 °F 80% 30.52 in 10.0 mi Calm Calm - N/A   Clear
10:55 PM 24.8 °F - 19.4 °F 80% 30.49 in 10.0 mi Calm Calm - N/A   Clear
11:55 PM 25.0 °F 20.7 °F 19.9 °F 81% 30.57 in 10.0 mi NNW 3.5 mph - N/A   Clear